Location: Ago
(8.4667°N, 4.4833°E)
Time: 23:49:07
(UTC+00:00)

ASTRO E2 - Pass Details

Date: 18 September 2020
Orbit: 509 x 515 km, 31.4° (Epoch: 20 October)

Event Time Altitude Azimuth Distance (km) Brightness Sun altitude
Rises 18:28:03 0° 316° (NW) 2,597 7.0 -12.7°
Reaches altitude 10° 18:30:29 10° 328° (NNW) 1,714 5.8 -13.3°
Maximum altitude 18:33:57 29° 29° (NNE) 958 3.8 -14.1°
Enters shadow 18:35:24 22° 66° (ENE) 1,132 3.9 -14.5°
